Location: Sternwarte ZA, Rosenfeld-Brittheim
(48.2889°N, 8.6789°E)
Time: 03:42:03
(UTC+02:00)

ISS - Pass Details

Date: 09 July 2020
Orbit: 417 x 421 km, 51.6° (Epoch: 08 July)

Event Time Altitude Azimuth Distance (km) Brightness Sun altitude
Exits shadow 01:05:23 13° 89° (E) 1,349 -1.3 -19.2°
Drops below altitude 10° 01:05:49 10° 85° (E) 1,497 -1.0 -19.2°
Sets 01:08:08 0° 72° (ENE) 2,364 0.2 -19.2°
